Miscellaneous Local Product
Issued by NWS Hastings, NE

Home | Current Version | Previous Version | Text Only | Print | Product List | Glossary On
Versions: 1 2 3 4 5 6 7 8 9 10 11 12 13 14 15 16 17 18 19 20 21 22 23 24 25 26 27 28 29 30 31 32 33 34 35 36 37 38 39 40 41 42 43 44 45 46 47 48 49 50
000
AXUS43 KGID 021302
MISGRI

GID CWA HOURLY WEATHER ROUNDUP
NATIONAL WEATHER SERVICE HASTINGS NE
800 AM CDT THU JUL 02 2015

NOTE: "FAIR" INDICATES FEW OR NO CLOUDS BELOW 12,000 FEET WITH NO
SIGNIFICANT WEATHER AND/OR OBSTRUCTIONS TO VISIBILITY.

...SOUTH CENTRAL NEBRASKA...

CITY           SKY/WX    TMP DP  RH WIND       PRES   REMARKS
GRAND ISLAND   CLOUDY    69  68  96 SW7       29.97S FOG
HASTINGS       TSTM      69  69 100 SW8       29.98R VSB 1
KEARNEY        CLOUDY    70  66  88 SW8       29.99F

...NEBRASKA PANHANDLE...

CITY           SKY/WX    TMP DP  RH WIND       PRES   REMARKS
CHADRON        SUNNY     63  59  87 W8        30.09R
ALLIANCE       SUNNY     60  58  92 W10       30.09S
SCOTTSBLUFF    PTSUNNY   62  62 100 NW12      30.14R
SIDNEY         PTSUNNY   60  58  92 SW7       30.13R

...WESTERN AND NORTH CENTRAL NEBRASKA...

CITY           SKY/WX    TMP DP  RH WIND       PRES   REMARKS
VALENTINE      PTSUNNY   67  63  87 W13       29.98S
BROKEN BOW     LGT RAIN  67  59  75 MISG      29.94R
IMPERIAL       CLOUDY    63  58  83 N5        30.08R
NORTH PLATTE   LGT RAIN  64  61  90 S8        29.98F
MCCOOK         CLOUDY    66  59  78 NE7       30.03S

...EASTERN NEBRASKA...

CITY           SKY/WX    TMP DP  RH WIND       PRES   REMARKS
NORFOLK        LGT RAIN  61  60  97 E9        29.96F FOG
SO SIOUX CITY  CLOUDY    61  55  81 E8        29.98F
TEKAMAH        CLOUDY    64  58  80 NE5       29.97S
COLUMBUS       CLOUDY    64  55  72 E7        29.97R
OMAHA EPPLEY   CLOUDY    64  59  83 E5        29.95F
OFFUTT AFB       N/A     64  61  88 E8        29.94F
LINCOLN        CLOUDY    67  63  87 E6        29.95R FOG
FALLS CITY     CLOUDY    70  67  90 NE7       29.92S FOG

...NORTHERN KANSAS...

CITY           SKY/WX    TMP DP  RH WIND       PRES   REMARKS
GOODLAND       MOSUNNY   63  56  78 N14       30.10S
HILL CITY      TSTM      66  63  90 N21G31    30.02R FOG
NORTON         MOSUNNY   64  61  88 N14       30.02R
PHILLIPSBURG   LGT RAIN  72  72 100 NW15G21   30.01R
SMITH CENTER   RAIN      72  70  94 W5        30.00R
HAYS           CLOUDY    73  64  73 E7        29.96R
RUSSELL        CLOUDY    73  71  93 E8        29.93R FOG
CONCORDIA      CLOUDY    73  69  87 E6        29.92F
SALINA         SUNNY     77  71  82 NE8       29.91S
TOPEKA         CLOUDY    74  70  87 N7        29.89R



USA.gov is the U.S. government's official web portal to all federal, state and local government web resources and services.